Weather History for Leeming, United Kingdom

Change the Weather History Date:

Wednesday, November 14, 2012

  Actual Average (EGNV) Record (EGNV)
Temperature  
Mean Temperature 50 °F -  
Max Temperature 56 °F 46 °F 57 °F (2008)
Min Temperature 44 °F 36 °F 28 °F (2001)
Degree Days  
Heating Degree Days 15    
Moisture  
Dew Point 45 °F    
Average Humidity 77    
Maximum Humidity 100    
Minimum Humidity 56    
Precipitation  
Precipitation 0.00 in 0.07 in - ()
Sea Level Pressure  
Sea Level Pressure 30.24 in    
Wind  
Wind Speed 7 mph ()    
Max Wind Speed 13 mph    
Max Gust Speed -    
Visibility 7.1 miles    
Events      
Averages and records for this station are not official NWS values.
T = Trace of Precipitation, MM = Missing Value Source: Averaged Metar Reports

Daily Weather History Graph

Daily Weather History Graph

Search for Another Location

Airport:

Trip Planner

Search our weather history database for the weather conditions in past years. The results will help you decide how hot, cold, wet, or windy it might be!

Date:

Astronomy

Nov. 14, 2012 Rise Set
Actual Time 7:33 AM GMT 4:06 PM GMT
Civil Twilight 6:53 AM GMT 4:46 PM GMT
Nautical Twilight 6:10 AM GMT 5:30 PM GMT
Astronomical Twilight 5:28 AM GMT 6:12 PM GMT
Moon 8:14 AM GMT (11/14) 4:31 PM GMT (11/14)
Length of Visible Light 9h 52m
Length of Day
8h 32m
New Moon, 1% of the Moon is Illuminated
Nov 14
New Moon
Nov 20
First Quarter
Nov 28
Full
Dec 6
Last Quarter
Dec 13
New

Hourly Weather History & Observations

Time (GMT) Temp. Windchill Dew Point Humidity Pressure Visibility Wind Dir Wind Speed Gust Speed Precip Events Conditions
12:50 AM 51.8 °F - 44.6 °F 76% 30.21 in 6.2 mi ESE 8.1 mph - N/A   Overcast
1:50 AM 53.6 °F - 44.6 °F 72% 30.21 in 6.2 mi SSE 12.7 mph - N/A   Overcast
2:50 AM 51 °F - 44 °F 70% 30.23 in 15 mi SSE 6.9 mph - -   Partly Cloudy
2:50 AM 51.8 °F - 44.6 °F 76% 30.21 in 6.2 mi SSE 6.9 mph - N/A   Scattered Clouds
3:50 AM 51.8 °F - 44.6 °F 76% 30.21 in 6.2 mi SSW 6.9 mph - N/A   Mostly Cloudy
4:50 AM 51.8 °F - 44.6 °F 76% 30.21 in 6.2 mi SE 3.5 mph - N/A   Overcast
5:50 AM 51 °F - 44 °F 69% 30.24 in 16 mi South 9.2 mph - -   Mostly Cloudy
5:50 AM 50.0 °F - 44.6 °F 82% 30.21 in 6.2 mi South 9.2 mph - N/A   Mostly Cloudy
6:50 AM 51.8 °F - 42.8 °F 71% 30.21 in 6.2 mi SSW 6.9 mph - N/A   Mostly Cloudy
7:50 AM 51.8 °F - 44.6 °F 76% 30.24 in 6.2 mi South 5.8 mph - N/A   Mostly Cloudy
8:50 AM 51 °F - 44 °F 70% 30.27 in 25 mi SSE 8.1 mph - -   Mostly Cloudy
8:50 AM 51.8 °F - 44.6 °F 76% 30.24 in 6.2 mi SSE 8.1 mph - N/A   Mostly Cloudy
9:50 AM 51.8 °F - 44.6 °F 76% 30.27 in 6.2 mi South 8.1 mph - N/A   Mostly Cloudy
10:50 AM 53.6 °F - 44.6 °F 72% 30.24 in 6.2 mi South 8.1 mph - N/A   Mostly Cloudy
11:50 AM 55 °F - 44 °F 56% 30.25 in 31 mi SSW 12.7 mph - -   Mostly Cloudy
12:50 PM 55.4 °F - 44.6 °F 67% 30.24 in 6.2 mi SSW 9.2 mph - N/A   Mostly Cloudy
1:50 PM 53.6 °F - 44.6 °F 72% 30.24 in 6.2 mi SSW 8.1 mph - N/A   Mostly Cloudy
2:50 PM 54 °F - 44 °F 61% 30.25 in 31 mi SSW 9.2 mph - -   Mostly Cloudy
2:50 PM 53.6 °F - 44.6 °F 72% 30.24 in 6.2 mi SSW 9.2 mph - N/A   Mostly Cloudy
3:50 PM 53.6 °F - 44.6 °F 72% 30.24 in 6.2 mi SSW 8.1 mph - N/A   Mostly Cloudy
4:50 PM 51.8 °F - 46.4 °F 82% 30.24 in 6.2 mi South 8.1 mph - N/A   Mostly Cloudy
5:50 PM 52 °F - 46 °F 74% 30.27 in 12 mi SSW 5.8 mph - -   Mostly Cloudy
5:50 PM 51.8 °F - 46.4 °F 82% 30.24 in 6.2 mi SSW 5.8 mph - N/A   Mostly Cloudy
6:50 PM 51.8 °F - 46.4 °F 82% 30.27 in 6.2 mi South 1.2 mph - N/A   Mostly Cloudy
7:50 PM 50.0 °F - 46.4 °F 87% 30.24 in 6.2 mi South 5.8 mph - N/A   Mostly Cloudy
8:50 PM 50 °F - 46 °F 82% 30.27 in 6 mi South 5.8 mph - -   Mostly Cloudy
8:50 PM 50.0 °F - 46.4 °F 87% 30.27 in 6.2 mi South 5.8 mph - N/A   Mostly Cloudy
9:50 PM 48.2 °F - 46.4 °F 93% 30.27 in 5.0 mi South 8.1 mph - N/A   Haze
10:50 PM 44.6 °F 43.1 °F 42.8 °F 93% 30.24 in - SW 3.5 mph - N/A   Mostly Cloudy
11:50 PM 47 °F - 46 °F 92% 30.28 in - South 2.3 mph - -   Mist
11:50 PM 46.4 °F - 46.4 °F 100% 30.27 in - South 2.3 mph - N/A   Overcast